Wind_Speed
20 20 20 20 20 21 21 21 21 22 22 21 21 21 22 23 24 23 22 22 21 21 20 19 19 18 17 17 17 17 17 16 16 16 16 17 18 18 18 18 18 18 18
21 21 21 21 21 21 22 21 21 22 22 22 22 22 22 23 24 23 23 23 22 22 21 21 21 20 19 18 18 18 18 18 17 17 18 18 19 20 19 19 19 20 20
21 21 22 22 23 23 23 22 22 23 23 24 23 23 23 23 24 24 24 24 24 23 23 23 23 23 22 21 21 20 20 19 19 20 19 19 19 20 21 21 21 21 22
23 23 23 24 24 24 24 24 24 24 24 25 25 25 24 24 24 24 24 23 24 24 24 24 25 24 24 24 23 22 22 21 22 22 22 21 20 21 21 21 21 22 22
24 24 25 25 24 25 24 25 25 25 25 26 26 27 26 26 25 25 25 25 25 25 25 25 25 25 25 25 25 24 24 23 23 23 22 22 21 21 21 21 21 21 22
25 25 25 25 25 25 26 26 26 26 26 26 27 27 27 26 26 25 26 26 25 25 26 26 26 26 26 26 26 25 25 24 24 23 23 23 22 22 22 22 22 21 22
25 25 25 26 26 26 27 27 26 27 27 27 27 27 27 27 27 27 27 27 26 26 27 27 26 26 26 26 26 25 26 25 24 24 23 23 23 23 23 23 23 23 23
24 25 26 26 25 26 27 27 27 27 27 27 28 28 28 28 27 27 27 27 27 27 27 27 27 26 26 26 26 26 26 25 24 24 24 24 24 24 24 24 24 24 23
25 26 26 27 26 26 27 27 27 28 27 27 28 28 27 28 28 28 28 28 28 28 28 28 28 27 27 26 26 27 26 25 24 24 24 24 25 25 24 24 24 24 24
26 26 27 27 27 27 26 27 28 28 27 27 27 27 28 27 28 28 27 28 28 28 28 28 29 29 28 27 27 27 26 25 24 23 23 23 24 24 24 24 24 24 25
27 27 28 27 27 27 27 28 28 27 26 26 27 27 28 28 27 28 28 28 28 28 28 27 27 28 29 28 27 27 26 25 24 24 24 24 24 24 24 24 24 25 25
28 28 28 27 28 28 28 27 27 27 27 27 27 27 27 27 28 28 28 27 27 27 27 27 27 27 28 28 26 26 26 25 25 25 25 24 24 25 25 25 25 25 25
29 28 28 28 27 27 26 27 26 26 27 27 27 28 28 28 27 28 28 28 28 28 27 27 27 27 28 28 27 26 26 25 25 25 25 25 25 25 26 26 27 26 25
28 28 28 28 28 28 27 26 26 26 26 27 27 27 28 27 27 27 28 28 28 28 27 27 27 27 27 27 27 26 26 26 26 25 25 26 26 25 26 27 27 26 26
28 29 29 29 28 28 27 27 26 26 26 26 26 26 27 27 26 26 26 27 27 26 26 26 26 26 26 26 25 25 26 26 26 25 25 25 26 26 26 26 26 26 25
28 29 28 28 27 27 26 26 26 26 26 26 25 25 26 26 25 24 25 26 26 26 26 26 25 25 25 26 26 25 25 25 26 25 24 25 26 26 26 26 26 26 25
27 27 27 27 27 26 26 25 25 25 25 25 25 25 25 25 25 25 25 25 26 26 26 25 25 26 26 26 25 24 24 24 24 25 25 25 25 25 26 26 25 25 25
26 26 26 26 25 25 25 24 24 24 24 23 24 24 23 23 23 23 23 23 24 24 24 24 24 24 24 24 24 24 23 23 23 24 24 24 24 24 24 24 23 24 23
25 24 24 24 24 24 23 23 23 23 23 23 23 23 22 22 21 21 22 22 22 22 23 23 23 23 23 23 23 23 23 23 23 23 24 24 23 23 22 22 22 23 22
23 23 23 23 23 23 22 22 22 22 22 22 21 21 21 21 21 21 21 21 21 22 22 22 22 22 22 22 22 23 23 23 23 23 23 23 22 21 21 21 22 21 22
23 23 23 22 22 22 22 22 21 21 21 20 20 20 20 20 20 21 21 21 21 21 21 21 21 21 21 21 21 22 22 22 22 21 21 21 21 20 20 20 20 20 21
22 22 22 22 21 21 21 21 20 20 19 19 19 19 19 19 20 20 21 21 20 20 21 20 20 20 21 20 20 21 21 21 20 20 20 21 20 19 19 19 18 19 19
21 21 22 21 21 21 20 20 19 19 18 17 18 18 19 19 19 19 20 20 20 20 20 20 20 21 20 19 19 19 20 20 20 20 19 19 19 18 18 17 17 17 17
20 19 19 20 20 20 19 17 17 17 17 17 17 17 17 17 17 17 18 18 18 18 19 19 19 19 18 18 17 17 17 18 18 18 18 18 17 16 16 16 16 17 16
17 17 17 17 17 17 17 16 16 16 16 15 15 15 14 14 15 15 16 16 15 16 16 16 16 16 16 16 16 16 16 16 16 16 16 16 15 15 15 15 16 16 15
14 14 14 14 15 15 15 15 15 15 14 14 14 13 13 14 14 14 13 13 14 14 15 15 15 15 15 15 14 14 14 14 14 14 14 14 14 14 14 14 14 14 14
Wind_Direction
282 284 285 285 287 286 284 282 279 277 275 274 271 269 266 264 265 265 264 262 260 259 260 261 262 261 260 261 260 257 256 255 254 254 253 254 254 253 253 254 255 256 258
281 282 283 285 286 285 284 280 279 277 276 274 271 268 266 265 266 264 264 260 258 258 258 259 261 262 261 261 260 260 260 258 257 256 256 258 259 257 256 256 257 258 259
278 280 280 281 283 283 282 280 279 278 277 275 274 271 267 266 265 265 263 259 258 258 258 258 259 262 261 261 260 261 261 261 259 257 257 260 260 259 259 259 259 259 259
277 279 279 279 279 280 280 279 278 276 275 274 273 271 269 268 266 265 264 262 260 258 257 258 258 261 262 261 261 262 264 263 262 260 260 260 261 261 263 262 261 262 261
277 278 278 278 279 279 279 278 277 275 275 273 271 269 270 268 268 266 265 264 263 260 259 258 257 260 263 262 262 263 264 264 263 263 262 261 261 263 263 264 263 263 263
276 276 277 278 279 279 278 278 277 275 274 272 270 270 269 269 267 265 265 263 262 261 259 258 258 259 262 262 262 263 265 265 264 264 264 263 263 263 264 264 264 265 266
275 276 278 279 280 279 279 278 277 275 274 271 270 269 269 269 268 267 266 263 261 261 259 258 259 259 261 262 262 263 265 264 264 263 263 262 261 262 264 266 266 266 268
277 279 279 279 280 280 280 279 277 275 274 271 269 268 270 269 270 268 265 262 262 261 259 259 259 260 260 260 261 262 264 263 263 262 262 262 261 262 264 265 267 268 269
276 278 279 279 279 279 279 279 278 276 274 270 269 269 270 270 271 269 266 264 263 261 259 258 259 259 260 260 261 262 263 263 264 264 263 263 262 262 263 266 269 269 271
275 278 279 279 279 278 278 278 279 276 273 270 268 268 269 268 269 267 266 265 263 261 260 258 258 259 258 259 259 260 261 262 263 264 265 264 263 262 263 266 269 271 272
276 277 278 280 279 279 279 279 278 275 271 269 267 268 269 268 267 266 266 264 262 261 259 258 257 258 257 258 259 260 260 261 262 263 265 266 265 265 266 267 269 271 271
276 277 278 279 280 281 280 279 278 274 270 269 268 268 268 268 266 266 265 263 261 261 261 260 258 258 258 257 259 261 260 262 262 264 264 266 267 266 266 268 270 271 271
276 277 278 279 280 282 281 280 278 276 272 270 269 268 267 267 265 263 262 262 261 260 260 259 258 258 258 258 258 259 259 261 263 264 263 264 265 265 266 268 270 272 273
277 278 279 279 279 281 280 279 277 275 273 271 270 269 266 266 265 263 261 259 258 258 257 256 258 260 260 260 258 258 258 260 262 263 263 263 265 266 267 269 271 273 274
278 279 280 280 280 281 280 279 277 274 273 271 270 269 267 265 264 262 259 257 256 258 258 257 257 258 260 261 260 259 258 260 262 264 265 265 265 267 268 271 272 272 272
277 278 279 279 280 281 281 279 277 274 272 270 268 267 267 265 262 259 257 256 255 256 257 256 255 256 259 260 261 260 261 262 263 264 266 266 266 266 268 269 269 269 271
278 280 278 279 280 281 280 279 277 275 273 271 268 268 267 264 260 258 257 256 256 256 255 255 254 256 259 260 259 260 261 261 262 263 266 268 266 267 267 268 268 270 271
280 280 279 279 279 280 280 279 276 275 273 272 269 268 266 262 260 257 257 256 255 255 255 255 255 257 258 258 258 260 262 262 262 263 265 268 268 268 268 267 267 268 269
279 280 279 279 280 281 280 278 277 275 274 274 272 270 266 262 259 259 259 257 256 255 256 257 258 259 260 259 259 260 261 262 262 263 264 266 266 267 266 264 267 267 269
278 281 279 279 280 280 280 279 276 274 274 273 272 270 267 265 261 260 260 258 256 256 256 257 259 260 260 260 260 259 260 261 263 263 261 263 264 264 265 266 267 269 271
279 280 279 278 279 280 280 278 275 273 273 272 270 268 267 266 263 261 260 259 256 254 254 257 258 258 260 261 262 262 262 263 263 262 259 260 262 264 265 266 267 267 269
281 281 279 277 276 277 279 279 276 274 271 270 268 267 267 267 265 262 259 259 258 256 256 257 258 259 260 262 262 261 262 262 260 258 258 259 260 260 262 265 267 267 268
281 280 279 277 275 276 278 278 275 273 272 271 268 267 268 267 265 262 260 259 258 257 258 257 256 257 259 260 261 259 258 258 257 257 256 258 258 259 261 263 264 264 266
281 281 280 277 275 276 277 276 274 275 274 272 268 267 267 266 264 263 263 262 259 256 255 254 254 255 257 258 259 260 258 257 256 254 253 255 257 258 260 263 265 265 266
285 284 282 279 277 275 275 274 274 276 275 272 269 268 268 265 263 262 263 260 255 251 250 250 252 252 253 256 256 257 257 255 252 252 251 251 253 256 260 265 266 266 267
289 287 285 280 278 277 277 274 273 275 275 270 268 267 265 264 265 264 262 259 252 249 250 251 250 247 248 250 250 250 250 249 247 247 248 250 252 255 261 264 264 265 265
Height
5873 5872 5871 5870 5869 5868 5867 5866 5866 5865 5865 5864 5864 5864 5864 5864 5864 5864 5864 5865 5865 5866 5866 5866 5866 5866 5866 5866 5866 5867 5867 5867 5868 5868 5869 5870 5870 5871 5871 5872 5872 5872 5873
5868 5867 5866 5865 5864 5863 5862 5861 5861 5860 5860 5859 5859 5859 5859 5859 5859 5859 5859 5859 5860 5861 5861 5861 5861 5861 5861 5862 5862 5863 5863 5863 5864 5864 5865 5865 5866 5866 5867 5867 5868 5868 5868
5863 5862 5862 5860 5859 5858 5858 5857 5856 5855 5854 5854 5854 5854 5853 5853 5853 5854 5854 5854 5855 5855 5856 5857 5857 5857 5857 5857 5858 5858 5859 5859 5859 5860 5860 5861 5861 5862 5862 5863 5863 5863 5863
5858 5857 5856 5855 5854 5853 5852 5851 5850 5850 5849 5849 5848 5848 5848 5848 5848 5848 5848 5849 5849 5850 5850 5851 5852 5852 5852 5853 5853 5853 5854 5854 5854 5855 5855 5856 5856 5857 5857 5858 5858 5858 5858
5852 5851 5851 5850 5848 5847 5846 5845 5844 5844 5843 5843 5842 5842 5842 5842 5842 5842 5843 5843 5844 5844 5845 5845 5846 5846 5847 5848 5848 5848 5848 5849 5849 5850 5850 5851 5851 5852 5852 5852 5853 5853 5853
5846 5845 5845 5844 5842 5842 5841 5839 5839 5838 5837 5837 5836 5836 5836 5836 5836 5836 5837 5837 5838 5838 5839 5839 5840 5841 5841 5842 5842 5843 5843 5844 5844 5844 5845 5845 5846 5846 5847 5847 5848 5848 5848
5840 5839 5839 5838 5836 5835 5834 5833 5832 5831 5831 5830 5830 5830 5830 5830 5830 5830 5831 5831 5832 5833 5833 5833 5834 5835 5835 5836 5837 5837 5838 5838 5838 5839 5839 5840 5840 5841 5841 5842 5842 5842 5843
5834 5833 5832 5831 5830 5829 5828 5827 5826 5825 5824 5824 5824 5823 5823 5824 5824 5824 5824 5825 5826 5826 5827 5827 5828 5828 5829 5830 5831 5831 5832 5832 5833 5833 5834 5834 5835 5835 5836 5836 5837 5837 5837
5828 5827 5826 5825 5824 5823 5822 5821 5819 5818 5817 5817 5817 5817 5817 5817 5817 5817 5817 5818 5819 5820 5820 5821 5821 5822 5823 5823 5824 5825 5826 5826 5827 5827 5828 5828 5829 5829 5830 5830 5831 5831 5831
5821 5820 5820 5818 5817 5816 5815 5814 5813 5811 5811 5810 5810 5810 5811 5811 5811 5811 5811 5811 5812 5813 5813 5814 5815 5816 5817 5818 5818 5819 5820 5820 5821 5822 5822 5822 5823 5824 5824 5825 5825 5825 5825
5815 5814 5813 5811 5810 5809 5808 5806 5805 5804 5803 5804 5804 5804 5803 5803 5803 5804 5804 5805 5805 5806 5806 5807 5808 5809 5810 5811 5812 5813 5813 5814 5815 5816 5816 5816 5817 5817 5818 5819 5819 5819 5819
5808 5807 5806 5804 5803 5802 5800 5799 5798 5797 5797 5797 5797 5796 5796 5796 5796 5796 5797 5797 5798 5799 5799 5800 5801 5802 5803 5804 5805 5806 5807 5808 5809 5810 5810 5811 5811 5812 5812 5812 5813 5813 5812
5800 5800 5798 5797 5796 5794 5793 5792 5790 5790 5789 5789 5789 5789 5789 5788 5789 5789 5789 5790 5791 5792 5793 5793 5794 5795 5796 5798 5799 5800 5801 5802 5803 5803 5804 5805 5805 5805 5806 5806 5806 5806 5806
5793 5792 5791 5789 5788 5787 5785 5784 5783 5782 5782 5782 5782 5781 5781 5781 5781 5781 5782 5783 5784 5785 5786 5787 5787 5788 5789 5791 5791 5793 5794 5795 5796 5797 5797 5798 5799 5799 5799 5799 5799 5799 5799
5785 5784 5783 5782 5780 5779 5778 5777 5776 5775 5775 5774 5774 5774 5774 5774 5774 5774 5774 5775 5777 5778 5779 5780 5781 5782 5783 5784 5785 5786 5787 5788 5789 5790 5791 5791 5792 5793 5793 5793 5793 5793 5792
5778 5776 5775 5774 5773 5772 5770 5769 5768 5767 5767 5767 5767 5767 5767 5767 5767 5767 5768 5768 5769 5771 5772 5773 5774 5775 5776 5777 5778 5779 5781 5782 5783 5784 5784 5785 5785 5786 5786 5786 5786 5786 5786
5770 5769 5768 5767 5766 5765 5763 5762 5761 5760 5760 5760 5760 5760 5760 5760 5760 5760 5761 5761 5762 5763 5765 5766 5767 5768 5769 5770 5771 5773 5774 5775 5776 5777 5777 5778 5778 5779 5779 5779 5779 5780 5780
5763 5762 5761 5760 5759 5758 5756 5755 5754 5753 5753 5753 5753 5753 5753 5753 5753 5753 5754 5755 5756 5757 5758 5759 5761 5762 5763 5764 5765 5766 5767 5768 5769 5770 5771 5771 5772 5772 5772 5773 5773 5773 5773
5756 5755 5754 5753 5752 5751 5749 5748 5748 5747 5746 5746 5746 5747 5747 5747 5747 5747 5748 5749 5750 5751 5752 5753 5754 5755 5756 5757 5758 5759 5760 5761 5762 5763 5764 5765 5765 5766 5766 5766 5767 5767 5767
5749 5748 5747 5746 5745 5744 5743 5742 5741 5740 5740 5740 5740 5740 5741 5741 5741 5741 5742 5743 5744 5745 5746 5747 5748 5749 5750 5751 5752 5753 5754 5755 5756 5757 5758 5758 5759 5759 5760 5760 5761 5761 5761
5742 5741 5740 5739 5739 5738 5736 5735 5735 5734 5734 5734 5734 5734 5735 5735 5735 5735 5736 5737 5738 5739 5740 5741 5742 5743 5744 5745 5746 5746 5747 5748 5749 5750 5751 5752 5753 5754 5754 5754 5755 5755 5756
5736 5735 5734 5733 5732 5732 5731 5729 5729 5728 5728 5728 5728 5728 5729 5729 5729 5730 5730 5731 5732 5733 5734 5735 5736 5738 5739 5739 5740 5741 5741 5743 5744 5745 5746 5747 5747 5748 5749 5749 5749 5750 5750
5730 5728 5728 5727 5726 5726 5725 5724 5723 5722 5722 5722 5722 5723 5723 5723 5724 5724 5724 5725 5726 5727 5728 5729 5730 5732 5733 5734 5734 5735 5736 5737 5738 5739 5740 5741 5742 5743 5743 5744 5744 5744 5745
5723 5722 5721 5721 5720 5720 5719 5718 5718 5717 5717 5717 5717 5717 5718 5718 5718 5719 5719 5720 5720 5721 5722 5724 5725 5726 5727 5728 5729 5730 5731 5732 5733 5734 5735 5736 5737 5738 5738 5739 5739 5739 5739
5718 5717 5716 5715 5714 5714 5713 5713 5713 5712 5712 5712 5712 5712 5713 5713 5713 5714 5714 5714 5715 5716 5717 5718 5719 5721 5722 5723 5724 5725 5726 5727 5728 5729 5730 5731 5732 5733 5733 5734 5734 5734 5734
5714 5712 5711 5710 5710 5709 5709 5708 5708 5708 5708 5708 5708 5708 5708 5709 5709 5709 5710 5710 5710 5712 5713 5714 5715 5716 5717 5719 5720 5721 5722 5723 5724 5726 5727 5728 5728 5729 5729 5729 5730 5729 5729